Regional Weather Roundup
Issued by NWS

Home | Current Version | Previous Version | Text Only | Print | Product List | Glossary On
Versions: 1 2 3 4 5 6 7 8 9 10 11 12 13 14 15 16 17 18 19 20 21 22 23 24 25 26 27 28 29 30 31 32 33 34 35 36 37 38 39 40 41 42 43 44 45 46 47 48 49 50
000
ASUS46 KLOX 270612
RWRCA

SOUTHERN CALIFORNIA WEATHER ROUNDUP
NATIONAL WEATHER SERVICE OXNARD CALIFORNIA
1000 PM PST FRI DEC 26 2014

NOTE: "FAIR" INDICATES FEW OR NO CLOUDS BELOW 12,000 FEET WITH NO
SIGNIFICANT WEATHER AND/OR OBSTRUCTIONS TO VISIBILITY.

  -  STATIONS PRECEEDED BY AN ASTERISK (*) ARE NOT NWS OR FAA
     STATIONS AND ARE NOT SUBJECT TO NWS AND FAA QUALITY CONTROL.

CAZ041-042-087-270700-
LA AND ORANGE COUNTY COASTAL AREAS


CITY           SKY/WX    TMP DP  RH WIND       PRES   REMARKS
L.A. DOWNTOWN  CLEAR     50  23  34 NE3       30.18R
L.A. AIRPORT   CLEAR     51  26  37 NE5       30.19R
LONG BEACH     CLEAR     50  22  33 E8        30.19R

CITY           SKY/WX    TMP DP  RH WIND       PRES   REMARKS
AVALON           N/A     45 N/A N/A MISG        N/A
FULLERTON      CLEAR     52  17  25 E5        30.18R
*GETTY CENTER    N/A     50  14  23 VRB15G23    N/A
HAWTHORNE      CLEAR     52  25  35 CALM      30.20R
*REDONDO BEACH   N/A     45  27  48 CALM      30.18R
SANTA ANA      CLEAR     59  11  15 NE10G18   30.18R
STA MONICA APT CLEAR     51  16  24 NE3       30.20R
*UCLA            N/A     52  14  22 N7        30.16R

$$

CAZ547-548-048-270700-
LA COUNTY VALLEYS AND INLAND EMPIRE


CITY           SKY/WX    TMP DP  RH WIND       PRES   REMARKS
BURBANK        CLEAR     47  19  33 CALM      30.18R
VAN NUYS       CLEAR     50  15  24 N13       30.19R

CITY           SKY/WX    TMP DP  RH WIND       PRES   REMARKS
CORONA AIRPORT CLEAR     51  14  23 CALM      30.22R
*CHATSWORTH      N/A     52  16  23 NE16      30.20R
CHINO          CLEAR     52  15  23 E8        30.21R
*NORTHRIDGE      N/A     52   7  16 N6G16       N/A
ONTARIO        CLEAR     52  12  20 E8        30.19R
*PASADENA        N/A     46  25  42 E1          N/A
RIVERSIDE      CLEAR     52  11  19 CALM      30.22R
SAN BERNARDINO NOT AVBL
*SAN GABRIEL     N/A     44  27  49 CALM      30.18R
*WHITEMAN AP   NOT AVBL
*WOODLAND HILL   N/A     52  12  20 VRB6        N/A

$$

CAZ054-055-270700-
LA AND SAN BERNARDINO COUNTY MOUNTAINS


CITY           SKY/WX    TMP DP  RH WIND       PRES   REMARKS
*ACTON           N/A     43   8  23 N12G28      N/A
*BIG BEAR AIRP CLEAR     23   5  46 NE18G30   30.13S WCI   9
*BIG PINES       N/A     21   7  53 SE7         N/A  WCI  12
MT WILSON NWS    N/A     28   7  40 NW3G9       N/A
SANDBERG       CLEAR     33  11  39 NE9       30.19R WCI  25
*WARM SPRINGS    N/A     33  11  39 NE28        N/A  WCI  20

$$

CAZ028-029-059-060-099-270700-
ANTELOPE VALLEY AND SURROUNDING AREAS


CITY           SKY/WX    TMP DP  RH WIND       PRES   REMARKS
LANCASTER      CLEAR     28  20  71 CALM      30.25R
PALMDALE       CLEAR     31  18  58 SE10      30.24R WCI  22

CITY           SKY/WX    TMP DP  RH WIND       PRES   REMARKS
29 PALMS       CLEAR     40  11  30 NW6       30.29R
BARSTOW/DAGGET CLEAR     37  12  35 NW3       30.26R
BISHOP         CLEAR     31   9  39 N15       30.26F WCI  20
CHINA LAKE     CLEAR     41  13  31 N12       30.24R WCI  34
MOJAVE         FAIR      32  16  51 CALM      30.25R
NEEDLES        CLEAR     46  11  24 NW10      30.20R
VICTORVILLE      N/A     30  16  55 W6        30.24R WCI  24

$$

CAZ039-040-270700-
VENTURA AND SANTA BARBARA COUNTY COAST


CITY           SKY/WX    TMP DP  RH WIND       PRES   REMARKS
CAMARILLO      CLEAR     47  22  37 NE9       30.20R
NWS OXNARD       N/A     45  23  41 CALM      30.20R
OXNARD AIRPORT CLEAR     48  24  39 E6        30.21R
*POINT MUGU    CLEAR     50  25  37 NE8       30.21R
SBA APT/GOLETA CLEAR     42  36  79 CALM      30.20R
*SANTA BARBARA   N/A     47  35  61 CALM      30.29R
*VENTURA         N/A     47  23  39 N3        30.26R

$$

CAZ044-045-270700-
VENTURA COUNTY VALLEYS


CITY           SKY/WX    TMP DP  RH WIND       PRES   REMARKS
*SIMI VALLEY     N/A     48  18  30 E3        30.20R
*OJAI            N/A     34  30  86 CALM      30.20R
*FILLMORE        N/A     49  23  35 NE3       30.12R

$$

CAZ053-270700-
VENTURA COUNTY MOUNTAINS


CITY           SKY/WX    TMP DP  RH WIND       PRES   REMARKS
*LOCKWOOD VLY    N/A    N/A N/A N/A MISG        N/A
*ROSE VALLEY     N/A     23  23 100 MISG        N/A

$$

CAZ034-035-036-270700-
CENTRAL COAST AND SANTA YNEZ VALLEY


CITY           SKY/WX    TMP DP  RH WIND       PRES   REMARKS
SAN LUIS OBISP CLEAR     40  29  64 S3        30.23R
SANTA MARIA    CLEAR     41  32  70 SE5       30.21R

CITY           SKY/WX    TMP DP  RH WIND       PRES   REMARKS
*CAL POLY SLO    N/A     48  28  46 NE3G13      N/A
*LOMPOC        CLEAR     37  30  75 E5        30.21R WCI  34
*PISMO BEACH     N/A     45  30  56 NE3       30.24R
*SANTA YNEZ    FAIR      39  32  75 E5        30.20R

$$

CAZ037-038-051-270700-
SAN LUIS OBISPO COUNTY INTERIOR AND CUYAMA VALLEY


CITY           SKY/WX    TMP DP  RH WIND       PRES   REMARKS
*CUYAMA          N/A     34  30  85 CALM      30.26R
PASO ROBLES    CLEAR     39  31  72 NE6       30.24R WCI  35

$$

CAZ032-033-061-270700-
SOUTHERN DESERTS


CITY           SKY/WX    TMP DP  RH WIND       PRES   REMARKS
BLYTHE         CLEAR     46  15  28 N9        30.19R
IMPERIAL       CLEAR     41  20  43 W5        30.20R
PALM SPRINGS   CLEAR     52  13  21 W6        30.25R
THERMAL        CLEAR     46  13  26 NW5       30.21S

$$

ELSEWHERE ACROSS THE WESTERN UNITED STATES AND MEXICO


CITY           SKY/WX    TMP DP  RH WIND       PRES   REMARKS
DENVER, CO     FLURRIES  10   7  87 S8        30.08S WCI  -2
GRAND CANYON,  CLEAR     10   6  84 NE3       30.06S
HONOLULU, HI   PTCLDY    72  64  78 N6        29.83R
KAHULUI, MAUI  PTCLDY    72  63  73 NE3       29.82S
LAKE TAHOE, CA PTCLDY    17   9  70 S5        30.24R WCI  10
LAS VEGAS, NV  CLEAR     43   8  23 NW12G21   30.20R
MAMMOTH LAKES, FAIR      14   7  73 W6        30.21S WCI   5
MEXICO CITY, M PTCLDY    59  45  58 S6        30.34F
PHOENIX, AZ    CLEAR     44  25  47 E5        30.10R
PORTLAND, OR   DRIZZLE   46  44  93 CALM      30.36F
RENO, NV       PTCLDY    26  15  63 CALM      30.30R
SALT LAKE CITY PTCLDY    21  16  81 NW3       30.23R
SAN DIEGO, CA  CLEAR     51  33  50 CALM      30.20R
SAN FRANCISCO, CLEAR     47  35  63 CALM      30.25R
SAN JOSE, CA   CLEAR     46  30  53 CALM      30.25R
SEATTLE, WA    CLOUDY    41  35  79 E3        30.35R
TIJUANA, MEX   CLEAR     52  14  22 E9        30.20R

$$

STATION/POSITION TIME  TEMP    WIND        PRES    VSBY  WAVE
                       AIR SEA DIR/SP/G                  HT/PER
                 (UTC) (F)     (DEG/KT/KT) (MB)    (MI)  (FT/S)
POINT ARGUELLO B NOT AVBL
WEST SANTA BARBA 0600   58 61  320/  4/  6 1021.9R         8/13
POINT CONCEPTION NOT AVBL
EAST SANTA BARBA NOT AVBL
SANTA MONICA BAY 0600   60 63   20/ 12/ 16 1022.1R         3/14


USA.gov is the U.S. government's official web portal to all federal, state and local government web resources and services.